Location: Baix
(44.7118°N, 4.7648°E)
Time: 02:42:59
(UTC+00:00)

CSL-04 DEB - Pass Details

Date: 07 August 2020
Orbit: 546 x 627 km, 98.7° (Epoch: 27 September)

Event Time Altitude Azimuth Distance (km) Brightness Sun altitude
Exits shadow 03:03:45 - 165° (SSE) 2,551 7.5 -14.3°
Reaches altitude 10° 03:05:29 10° 165° (SSE) 1,814 6.7 -14.1°
Maximum altitude 03:09:24 87° 250° (WSW) 554 4.2 -13.6°
Drops below altitude 10° 03:13:21 10° 345° (NNW) 1,830 7.3 -13.0°
Sets 03:15:29 0° 346° (NNW) 2,733 8.2 -12.7°
